User: anonymous   Login
Location: Ostrava
(49.8330°N, 18.2830°E)
Time: 12:27:49
(UTC+01:00)
Language:

Cosmos 1263 Rocket - Orbit

View from above orbital plane
View from above orbital plane
View from above satellite
View from above satellite

Ground track
Ground track

The orbit data is extracted from the following two-line orbital elements,

1 12389U 81033B   14351.41430895  .00077157  00000-0  79824-3 0  1820
2 12389 082.8686 289.0753 0158521 167.7784 332.4627 15.50301772737925
Epoch (UTC): 17 December 2014 09:56:36
Eccentricity: 0.0158521
inclination: 82.8686°
perigee height: 308 km
apogee height: 523 km
right ascension of ascending node: 289.0753°
argument of perigee: 167.7784°
revolutions per day: 15.50301772
mean anomaly at epoch: 332.4627°
orbit number at epoch: 73792

The dashed part of the orbit path shows where the satellite is in the earth's shadow,  

DLR